Weather History for KINJ - October, 2012

Change the Weather History Date:

Friday, October 5, 2012

  Actual Average (KACT) Record (KACT)
Temperature  
Mean Temperature 74 °F 72 °F  
Max Temperature 87 °F 84 °F 97 °F (1904)
Min Temperature 60 °F 60 °F 43 °F (2010)
Degree Days  
Heating Degree Days 0 1  
Month to date heating degree days 5  
Since 1 July heating degree days 11  
Cooling Degree Days 10 7  
Month to date cooling degree days 39  
Year to date cooling degree days 2633  
Growing Degree Days 24 (Base 50)    
Moisture  
Dew Point 64 °F    
Average Humidity 68    
Maximum Humidity 88    
Minimum Humidity 40    
Precipitation  
Precipitation 0.00 in 0.12 in 1.60 in (1998)
Month to date precipitation 0.56  
Year to date precipitation 25.78  
Snow  
Snow 0.00 in 0.00 in 0.00 in ()
Month to date snowfall 0.0  
Since 1 July snowfall 0.0  
Since 1 September snowfall 0.0  
Snow Depth -    
Sea Level Pressure  
Sea Level Pressure 30.05 in    
Wind  
Wind Speed 8 mph (South)    
Max Wind Speed 16 mph    
Max Gust Speed 22 mph    
Visibility 10 miles    
Events      
T = Trace of Precipitation, MM = Missing Value Source: NWS Daily Summary

Daily Weather History Graph

Daily Weather History Graph

Search for Another Location

Airport or City:

Trip Planner

Search our weather history database for the weather conditions in past years. The results will help you decide how hot, cold, wet, or windy it might be!

Date:

Astronomy

Oct. 05, 2012 Rise Set
Actual Time 7:25 AM CDT 7:07 PM CDT
Civil Twilight 7:00 AM CDT 7:31 PM CDT
Nautical Twilight 6:32 AM CDT 8:00 PM CDT
Astronomical Twilight 6:04 AM CDT 8:28 PM CDT
Moon 10:48 PM CDT (10/5) 12:17 PM CDT (10/5)
Length of Visible Light 12h 31m
Length of Day
11h 42m
Waning Gibbous, 74% of the Moon is Illuminated
Oct 5
Waning Gibbous
Oct 8
Last Quarter
Oct 15
New
Oct 21
First Quarter
Oct 29
Full

Hourly Weather History & Observations

Time (CDT) Temp. Heat Index Dew Point Humidity Pressure Visibility Wind Dir Wind Speed Gust Speed Precip Events Conditions
12:15 AM 75.2 °F - 66.2 °F 73% 30.08 in 10.0 mi SSE 10.4 mph - N/A   Clear
12:35 AM 73.4 °F - 66.2 °F 78% 30.08 in 10.0 mi SE 9.2 mph - N/A   Clear
12:55 AM 73.4 °F - 66.2 °F 78% 30.08 in 10.0 mi SSE 8.1 mph - N/A   Clear
1:15 AM 73.4 °F - 66.2 °F 78% 30.08 in 10.0 mi SSE 6.9 mph - N/A   Scattered Clouds
1:35 AM 73.4 °F - 66.2 °F 78% 30.09 in 10.0 mi Calm Calm - N/A   Mostly Cloudy
1:55 AM 73.4 °F - 68.0 °F 83% 30.09 in 10.0 mi Calm Calm - N/A   Overcast
2:15 AM 73.4 °F - 68.0 °F 83% 30.08 in 10.0 mi Calm Calm - N/A   Overcast
2:35 AM 73.4 °F - 68.0 °F 83% 30.09 in 10.0 mi Calm Calm - N/A   Overcast
2:55 AM 73.4 °F - 68.0 °F 83% 30.09 in 10.0 mi Calm Calm - N/A   Overcast
3:15 AM 73.4 °F - 68.0 °F 83% 30.09 in 10.0 mi Calm Calm - N/A   Overcast
3:35 AM 73.4 °F - 68.0 °F 83% 30.08 in 10.0 mi SSE 8.1 mph - N/A   Overcast
3:55 AM 73.4 °F - 68.0 °F 83% 30.08 in 10.0 mi Calm Calm - N/A   Overcast
4:15 AM 73.4 °F - 68.0 °F 83% 30.08 in 10.0 mi SSE 9.2 mph - N/A   Mostly Cloudy
4:35 AM 73.4 °F - 68.0 °F 83% 30.07 in 10.0 mi Calm Calm - N/A   Mostly Cloudy
4:55 AM 73.4 °F - 68.0 °F 83% 30.07 in 10.0 mi SSE 15.0 mph - N/A   Mostly Cloudy
5:15 AM 73.4 °F - 68.0 °F 83% 30.07 in 10.0 mi SSE 11.5 mph - N/A   Mostly Cloudy
5:35 AM 71.6 °F - 68.0 °F 88% 30.07 in 10.0 mi SSE 9.2 mph - N/A   Scattered Clouds
5:55 AM 71.6 °F - 68.0 °F 88% 30.08 in 10.0 mi Calm Calm - N/A   Clear
6:15 AM 71.6 °F - 68.0 °F 88% 30.08 in 10.0 mi Calm Calm - N/A   Mostly Cloudy
6:35 AM 71.6 °F - 68.0 °F 88% 30.09 in 10.0 mi South 3.5 mph - N/A   Overcast
6:55 AM 71.6 °F - 68.0 °F 88% 30.09 in 10.0 mi Calm Calm - N/A   Overcast
7:15 AM 71.6 °F - 68.0 °F 88% 30.09 in 10.0 mi South 6.9 mph - N/A   Overcast
7:35 AM 71.6 °F - 68.0 °F 88% 30.10 in 10.0 mi Calm Calm - N/A   Overcast
7:55 AM 71.6 °F - 68.0 °F 88% 30.10 in 10.0 mi South 6.9 mph - N/A   Overcast
8:15 AM 71.6 °F - 68.0 °F 88% 30.10 in 7.0 mi Calm Calm - N/A   Overcast
8:35 AM 73.4 °F - 69.8 °F 88% 30.10 in 7.0 mi South 10.4 mph - N/A   Overcast
8:55 AM 73.4 °F - 69.8 °F 88% 30.10 in 10.0 mi South 10.4 mph - N/A   Mostly Cloudy
9:15 AM 73.4 °F - 68.0 °F 83% 30.10 in 10.0 mi South 10.4 mph - N/A   Scattered Clouds
9:35 AM 73.4 °F - 68.0 °F 83% 30.10 in 10.0 mi South 11.5 mph - N/A   Mostly Cloudy
9:55 AM 75.2 °F - 68.0 °F 78% 30.10 in 10.0 mi South 13.8 mph - N/A   Mostly Cloudy
10:15 AM 77.0 °F - 68.0 °F 74% 30.10 in 10.0 mi South 15.0 mph - N/A   Mostly Cloudy
10:35 AM 77.0 °F - 68.0 °F 74% 30.10 in 10.0 mi South 11.5 mph - N/A   Mostly Cloudy
10:55 AM 78.8 °F - 68.0 °F 69% 30.10 in 10.0 mi South 12.7 mph 18.4 mph N/A   Mostly Cloudy
11:35 AM 80.6 °F 82.7 °F 66.2 °F 61% 30.09 in 10.0 mi South 15.0 mph 18.4 mph N/A   Mostly Cloudy
11:55 AM 80.6 °F 82.3 °F 64.4 °F 58% 30.09 in 10.0 mi South 12.7 mph 21.9 mph N/A   Mostly Cloudy
12:15 PM 80.6 °F 82.3 °F 64.4 °F 58% 30.08 in 10.0 mi South 16.1 mph - N/A   Scattered Clouds
12:35 PM 82.4 °F 83.4 °F 62.6 °F 51% 30.08 in 10.0 mi SSW 11.5 mph 21.9 mph N/A   Scattered Clouds
12:55 PM 84.2 °F 85.0 °F 62.6 °F 48% 30.07 in 10.0 mi SSW 13.8 mph 18.4 mph N/A   Scattered Clouds
1:35 PM 86.0 °F 86.6 °F 62.6 °F 45% 30.04 in 10.0 mi South 15.0 mph 19.6 mph N/A   Scattered Clouds
1:55 PM 86.0 °F 86.6 °F 62.6 °F 45% 30.03 in 10.0 mi South 15.0 mph 18.4 mph N/A   Scattered Clouds
2:15 PM 86.0 °F 86.6 °F 62.6 °F 45% 30.02 in 10.0 mi South 13.8 mph - N/A   Scattered Clouds
2:35 PM 86.0 °F 86.6 °F 62.6 °F 45% 30.01 in 10.0 mi South 8.1 mph - N/A   Scattered Clouds
2:55 PM 86.0 °F 86.6 °F 62.6 °F 45% 30.01 in 10.0 mi SSW 12.7 mph - N/A   Scattered Clouds
3:15 PM 86.0 °F 86.6 °F 62.6 °F 45% 30.00 in 10.0 mi SSW 12.7 mph 18.4 mph N/A   Scattered Clouds
3:35 PM 86.0 °F 86.6 °F 62.6 °F 45% 29.99 in 10.0 mi South 12.7 mph 17.3 mph N/A   Scattered Clouds
3:55 PM 86.0 °F 86.6 °F 62.6 °F 45% 29.99 in 10.0 mi SSW 11.5 mph 16.1 mph N/A   Scattered Clouds
4:15 PM 86.0 °F 86.6 °F 62.6 °F 45% 29.98 in 10.0 mi South 12.7 mph 17.3 mph N/A   Scattered Clouds
4:35 PM 86.0 °F 86.1 °F 60.8 °F 43% 29.98 in 10.0 mi South 9.2 mph - N/A   Scattered Clouds
4:55 PM 86.0 °F 86.1 °F 60.8 °F 43% 29.97 in 10.0 mi SW 8.1 mph 18.4 mph N/A   Scattered Clouds
5:15 PM 86.0 °F 86.1 °F 60.8 °F 43% 29.97 in 10.0 mi South 12.7 mph - N/A   Scattered Clouds
5:35 PM 87.8 °F 87.6 °F 60.8 °F 40% 29.96 in 10.0 mi SSW 6.9 mph - N/A   Mostly Cloudy
6:35 PM 84.2 °F 84.4 °F 60.8 °F 45% 29.97 in 10.0 mi South 4.6 mph - N/A   Scattered Clouds
6:55 PM 84.2 °F 84.4 °F 60.8 °F 45% 29.97 in 10.0 mi Calm Calm - N/A   Mostly Cloudy
7:15 PM 80.6 °F 81.8 °F 62.6 °F 54% 29.98 in 10.0 mi North 9.2 mph 19.6 mph N/A   Mostly Cloudy
7:35 PM 78.8 °F - 62.6 °F 57% 29.98 in 10.0 mi North 15.0 mph 18.4 mph N/A   Mostly Cloudy
8:15 PM 75.2 °F - 60.8 °F 61% 29.99 in 10.0 mi North 16.1 mph 20.7 mph N/A   Scattered Clouds
8:35 PM 73.4 °F - 60.8 °F 65% 30.00 in 10.0 mi North 12.7 mph - N/A   Scattered Clouds
8:55 PM 73.4 °F - 60.8 °F 65% 30.01 in 10.0 mi North 13.8 mph 17.3 mph N/A   Scattered Clouds
9:15 PM 73.4 °F - 59.0 °F 61% 30.02 in 10.0 mi North 10.4 mph 17.3 mph N/A   Mostly Cloudy
9:55 PM 68.0 °F - 53.6 °F 60% 30.04 in 10.0 mi North 12.7 mph 19.6 mph N/A   Mostly Cloudy
10:15 PM 64.4 °F - 53.6 °F 68% 30.05 in 10.0 mi North 12.7 mph 21.9 mph N/A   Scattered Clouds
10:35 PM 64.4 °F - 51.8 °F 64% 30.07 in 10.0 mi North 11.5 mph 19.6 mph N/A   Clear
10:55 PM 62.6 °F - 51.8 °F 68% 30.07 in 10.0 mi Calm Calm - N/A   Clear
11:35 PM 62.6 °F - 51.8 °F 68% 30.08 in 10.0 mi NNE 11.5 mph 16.1 mph N/A   Mostly Cloudy
11:55 PM 60.8 °F - 51.8 °F 72% 30.08 in 10.0 mi NNE 9.2 mph - N/A   Mostly Cloudy